ORBCOMM FM114 [+]

Last updated on Fri Dec 29 2023 00:02:54 GMT+0000 (Coordinated Universal Time)

1 41179U 15081A 23362.20290422 .00001693 00000+0 41686-3 0 9990 2 41179 47.0035 298.9690 0001779 17.5503 342.5443 14.56201014426204
UTC large
Height (km)
Speed (km/s)
/
Latitude / Longitude
Inclination (degrees)
Orbital Period (minutes)
Azimuth
Elevation
Range (km)
Doppler Factor

Next 0 passes for location: London (51.5072 / 0.1276)

Sorry there are no passes over London.